SAV38P VOPB-VTBS

Flight info

Callsign SAV38P
Flight time 1h 26m
Altitude 37000
Route DCT LADER P762 DWI L877 MIGAR DCT IBETO WILLA1C
Aircraft A20N/M-SDE2E3FGHIRWXY/LB1

Departure

Time 2026-04-24 12:07
Airport Veer Savarkar International Airport / INS Utkrosh (VOPB)

Arrival

Time 2026-04-24 13:33
Airport Suvarnabhumi Airport (VTBS)
Time Latitude Longitude Altitude Speed Heading
2026-04-24 11:56 11.64913 92.73337 81 ft 0 kts 305°
2026-04-24 12:01 11.64906 92.73347 86 ft 2 kts 302°
2026-04-24 12:01 11.64898 92.73362 85 ft 2 kts 296°
2026-04-24 12:01 11.64892 92.73377 86 ft 2 kts 276°
2026-04-24 12:02 11.64895 92.73393 84 ft 2 kts 221°
2026-04-24 12:02 11.64899 92.73397 83 ft 0 kts 216°
2026-04-24 12:04 11.64890 92.73390 86 ft 3 kts 216°
2026-04-24 12:04 11.64867 92.73378 83 ft 5 kts 201°
2026-04-24 12:05 11.64836 92.73386 83 ft 6 kts 154°
2026-04-24 12:05 11.64808 92.73416 88 ft 6 kts 123°
2026-04-24 12:05 11.64774 92.73442 85 ft 6 kts 182°
2026-04-24 12:05 11.64740 92.73427 84 ft 0 kts 214°
2026-04-24 12:06 11.64713 92.73407 87 ft 27 kts 216°
2026-04-24 12:06 11.64356 92.73139 92 ft 98 kts 216°
2026-04-24 12:06 11.63624 92.72585 105 ft 164 kts 216°
2026-04-24 12:06 11.62591 92.71808 419 ft 196 kts 216°
2026-04-24 12:07 11.61355 92.71084 1094 ft 212 kts 198°
2026-04-24 12:07 11.59905 92.70975 2180 ft 207 kts 168°
2026-04-24 12:07 11.58630 92.71566 3271 ft 200 kts 138°
2026-04-24 12:07 11.57830 92.72678 4272 ft 196 kts 109°
2026-04-24 12:08 11.57620 92.74096 4898 ft 211 kts 86°
2026-04-24 12:08 11.57884 92.75639 5255 ft 233 kts 72°
2026-04-24 12:08 11.58505 92.77250 5675 ft 255 kts 64°
2026-04-24 12:08 11.59331 92.78929 6172 ft 272 kts 62°
2026-04-24 12:09 11.60234 92.80643 6942 ft 276 kts 62°
2026-04-24 12:09 11.61148 92.82372 7758 ft 279 kts 62°
2026-04-24 12:09 11.62065 92.84132 8534 ft 283 kts 63°
2026-04-24 12:09 11.62986 92.85920 9328 ft 287 kts 63°
2026-04-24 12:10 11.63913 92.87735 10061 ft 292 kts 63°
2026-04-24 12:10 11.64881 92.89637 10346 ft 314 kts 63°
2026-04-24 12:10 11.65920 92.91684 10554 ft 335 kts 63°
2026-04-24 12:11 11.68115 92.95999 11807 ft 346 kts 63°
2026-04-24 12:11 11.69229 92.98189 12494 ft 350 kts 63°
2026-04-24 12:11 11.70358 93.00409 13157 ft 354 kts 63°
2026-04-24 12:11 11.71497 93.02651 13810 ft 358 kts 63°
2026-04-24 12:12 11.72648 93.04915 14434 ft 360 kts 63°
2026-04-24 12:12 11.73805 93.07193 15027 ft 363 kts 63°
2026-04-24 12:12 11.74970 93.09488 15635 ft 366 kts 63°
2026-04-24 12:12 11.76145 93.11803 16193 ft 369 kts 63°
2026-04-24 12:13 11.77328 93.14135 16758 ft 372 kts 63°
2026-04-24 12:13 11.78521 93.16486 17318 ft 374 kts 63°
2026-04-24 12:13 11.79721 93.18854 17857 ft 377 kts 63°
2026-04-24 12:13 11.80933 93.21246 18355 ft 380 kts 63°
2026-04-24 12:14 11.82153 93.23653 18810 ft 383 kts 63°
2026-04-24 12:14 11.83379 93.26073 19261 ft 386 kts 63°
2026-04-24 12:14 11.84617 93.28518 19717 ft 389 kts 63°
2026-04-24 12:14 11.85863 93.30980 20150 ft 392 kts 63°
2026-04-24 12:15 11.87102 93.33427 20607 ft 394 kts 63°
2026-04-24 12:15 11.88365 93.35923 21043 ft 397 kts 63°
2026-04-24 12:15 11.89638 93.38440 21482 ft 400 kts 63°
2026-04-24 12:15 11.90920 93.40973 21927 ft 403 kts 63°
2026-04-24 12:16 11.92210 93.43525 22342 ft 406 kts 63°
2026-04-24 12:16 11.93514 93.46103 22773 ft 409 kts 63°
2026-04-24 12:16 11.94823 93.48692 23207 ft 412 kts 63°
2026-04-24 12:16 11.96143 93.51305 23584 ft 415 kts 63°
2026-04-24 12:17 11.97470 93.53931 23918 ft 418 kts 63°
2026-04-24 12:17 11.98806 93.56575 24261 ft 420 kts 63°
2026-04-24 12:17 12.00151 93.59238 24594 ft 423 kts 63°
2026-04-24 12:17 12.01505 93.61920 24922 ft 426 kts 63°
2026-04-24 12:18 12.02866 93.64615 25249 ft 429 kts 63°
2026-04-24 12:18 12.04246 93.67351 25577 ft 431 kts 63°
2026-04-24 12:18 12.05609 93.70053 25899 ft 434 kts 62°
2026-04-24 12:18 12.06997 93.72804 26216 ft 436 kts 62°
2026-04-24 12:19 12.08398 93.75583 26531 ft 439 kts 62°
2026-04-24 12:19 12.09805 93.78374 26839 ft 441 kts 62°
2026-04-24 12:19 12.11198 93.81141 27126 ft 444 kts 62°
2026-04-24 12:19 12.12619 93.83961 27404 ft 447 kts 62°
2026-04-24 12:20 12.14048 93.86798 27685 ft 449 kts 62°
2026-04-24 12:20 12.15473 93.89628 27961 ft 452 kts 62°
2026-04-24 12:20 12.16922 93.92509 28237 ft 455 kts 62°
2026-04-24 12:20 12.18360 93.95365 28475 ft 457 kts 63°
2026-04-24 12:21 12.19823 93.98275 28748 ft 460 kts 63°
2026-04-24 12:21 12.21288 94.01189 29003 ft 462 kts 63°
2026-04-24 12:21 12.22758 94.04124 29246 ft 465 kts 63°
2026-04-24 12:21 12.24148 94.07118 29506 ft 467 kts 65°
2026-04-24 12:22 12.25489 94.10149 29748 ft 470 kts 65°
2026-04-24 12:22 12.26832 94.13204 29984 ft 472 kts 65°
2026-04-24 12:22 12.28189 94.16266 30238 ft 473 kts 65°
2026-04-24 12:22 12.29557 94.19331 30492 ft 475 kts 65°
2026-04-24 12:23 12.30935 94.22404 30738 ft 476 kts 65°
2026-04-24 12:23 12.32319 94.25484 31005 ft 477 kts 65°
2026-04-24 12:23 12.33703 94.28564 31352 ft 476 kts 65°
2026-04-24 12:23 12.35084 94.31637 31696 ft 475 kts 65°
2026-04-24 12:24 12.35998 94.33672 31921 ft 474 kts 65°
2026-04-24 12:24 12.37372 94.36731 32248 ft 473 kts 65°
2026-04-24 12:24 12.38744 94.39788 32574 ft 472 kts 65°
2026-04-24 12:24 12.40112 94.42836 32893 ft 471 kts 65°
2026-04-24 12:25 12.41486 94.45877 33181 ft 470 kts 65°
2026-04-24 12:25 12.42862 94.48908 33473 ft 470 kts 65°
2026-04-24 12:25 12.44237 94.51938 33764 ft 469 kts 65°
2026-04-24 12:25 12.45605 94.54957 34039 ft 468 kts 65°
2026-04-24 12:26 12.46971 94.57972 34268 ft 467 kts 65°
2026-04-24 12:26 12.48334 94.60985 34506 ft 466 kts 65°
2026-04-24 12:26 12.49692 94.63989 34742 ft 465 kts 65°
2026-04-24 12:26 12.51050 94.66991 34971 ft 464 kts 65°
2026-04-24 12:27 12.52401 94.69982 35191 ft 463 kts 65°
2026-04-24 12:27 12.53753 94.72976 35435 ft 462 kts 65°
2026-04-24 12:27 12.55100 94.75958 35672 ft 461 kts 65°
2026-04-24 12:27 12.56442 94.78931 35908 ft 460 kts 65°
2026-04-24 12:28 12.57786 94.81908 36141 ft 460 kts 65°
2026-04-24 12:28 12.59107 94.84837 36345 ft 459 kts 65°
2026-04-24 12:28 12.60445 94.87803 36565 ft 458 kts 65°
2026-04-24 12:28 12.61780 94.90763 36765 ft 458 kts 66°
2026-04-24 12:29 12.63114 94.93723 36828 ft 457 kts 66°
2026-04-24 12:29 12.65772 94.99625 36828 ft 456 kts 66°
2026-04-24 12:30 12.68430 95.05532 36828 ft 457 kts 66°
2026-04-24 12:30 12.71088 95.11442 36829 ft 457 kts 66°
2026-04-24 12:31 12.73747 95.17357 36830 ft 457 kts 66°
2026-04-24 12:31 12.76399 95.23263 36826 ft 456 kts 66°
2026-04-24 12:32 12.79049 95.29168 36822 ft 456 kts 66°
2026-04-24 12:32 12.81699 95.35077 36817 ft 456 kts 66°
2026-04-24 12:33 12.84348 95.40989 36812 ft 456 kts 66°
2026-04-24 12:33 12.86996 95.46900 36812 ft 456 kts 66°
2026-04-24 12:34 12.89668 95.52800 36817 ft 457 kts 65°
2026-04-24 12:34 12.92370 95.58693 36820 ft 457 kts 65°
2026-04-24 12:35 12.95067 95.64591 36824 ft 457 kts 65°
2026-04-24 12:35 12.97763 95.70500 36828 ft 458 kts 65°
2026-04-24 12:36 13.00458 95.76413 36829 ft 458 kts 65°
2026-04-24 12:36 13.03135 95.82293 36826 ft 458 kts 65°
2026-04-24 12:37 13.05830 95.88215 36829 ft 458 kts 65°
2026-04-24 12:37 13.08526 95.94143 36829 ft 458 kts 65°
2026-04-24 12:38 13.11218 96.00068 36826 ft 459 kts 65°
2026-04-24 12:38 13.13914 96.06004 36829 ft 459 kts 65°
2026-04-24 12:39 13.19298 96.17873 36830 ft 459 kts 65°
2026-04-24 12:40 13.21989 96.23813 36828 ft 459 kts 65°
2026-04-24 12:40 13.24660 96.29712 36825 ft 459 kts 65°
2026-04-24 12:41 13.27347 96.35650 36825 ft 459 kts 65°
2026-04-24 12:41 13.30033 96.41591 36822 ft 459 kts 65°
2026-04-24 12:42 13.32717 96.47532 36819 ft 459 kts 65°
2026-04-24 12:42 13.35400 96.53476 36814 ft 459 kts 65°
2026-04-24 12:43 13.38081 96.59420 36815 ft 459 kts 65°
2026-04-24 12:43 13.40761 96.65365 36817 ft 459 kts 65°
2026-04-24 12:44 13.43445 96.71322 36815 ft 459 kts 65°
2026-04-24 12:44 13.46124 96.77274 36812 ft 459 kts 65°
2026-04-24 12:45 13.48805 96.83234 36813 ft 460 kts 65°
2026-04-24 12:45 13.51489 96.89206 36813 ft 460 kts 65°
2026-04-24 12:46 13.54174 96.95186 36816 ft 461 kts 65°
2026-04-24 12:46 13.56859 97.01169 36817 ft 461 kts 65°
2026-04-24 12:47 13.59545 97.07160 36818 ft 462 kts 65°
2026-04-24 12:47 13.62233 97.13160 36820 ft 462 kts 65°
2026-04-24 12:48 13.64922 97.19164 36825 ft 463 kts 65°
2026-04-24 12:48 13.67611 97.25176 36823 ft 463 kts 65°
2026-04-24 12:49 13.70280 97.31147 36813 ft 462 kts 65°
2026-04-24 12:49 13.72967 97.37161 36818 ft 463 kts 65°
2026-04-24 12:50 13.75655 97.43184 36819 ft 463 kts 65°
2026-04-24 12:50 13.78344 97.49215 36819 ft 464 kts 65°
2026-04-24 12:51 13.81035 97.55252 36817 ft 464 kts 65°
2026-04-24 12:51 13.83725 97.61293 36812 ft 465 kts 65°
2026-04-24 12:52 13.86415 97.67339 36817 ft 465 kts 65°
2026-04-24 12:52 13.89106 97.73390 36821 ft 465 kts 65°
2026-04-24 12:53 13.91796 97.79445 36823 ft 465 kts 65°
2026-04-24 12:53 13.94488 97.85509 36824 ft 466 kts 65°
2026-04-24 12:54 13.97178 97.91572 36824 ft 465 kts 65°
2026-04-24 12:54 13.99862 97.97628 36825 ft 465 kts 65°
2026-04-24 12:55 14.02543 98.03683 36830 ft 465 kts 65°
2026-04-24 12:55 14.05222 98.09736 36831 ft 464 kts 65°
2026-04-24 12:56 14.07898 98.15786 36834 ft 464 kts 65°
2026-04-24 12:56 14.10356 98.21923 36837 ft 464 kts 72°
2026-04-24 12:57 14.12080 98.28327 36841 ft 464 kts 74°
2026-04-24 12:57 14.13783 98.34730 36846 ft 464 kts 74°
2026-04-24 12:58 14.15475 98.41098 36855 ft 464 kts 74°
2026-04-24 12:58 14.17172 98.47503 36853 ft 463 kts 74°
2026-04-24 12:59 14.18866 98.53909 36861 ft 463 kts 74°
2026-04-24 12:59 14.20558 98.60317 36864 ft 463 kts 74°
2026-04-24 13:00 14.22248 98.66722 36864 ft 463 kts 74°
2026-04-24 13:00 14.23936 98.73128 36862 ft 463 kts 74°
2026-04-24 13:01 14.25625 98.79531 36865 ft 463 kts 74°
2026-04-24 13:01 14.27312 98.85925 36863 ft 463 kts 74°
2026-04-24 13:02 14.28996 98.92324 36860 ft 462 kts 75°
2026-04-24 13:02 14.29790 98.98893 36849 ft 463 kts 91°
2026-04-24 13:03 14.28877 99.05457 36855 ft 465 kts 105°
2026-04-24 13:03 14.27223 99.11930 36583 ft 468 kts 104°
2026-04-24 13:03 14.26404 99.15172 36344 ft 466 kts 104°
2026-04-24 13:04 14.25587 99.18409 36092 ft 467 kts 104°
2026-04-24 13:04 14.24767 99.21652 35582 ft 469 kts 104°
2026-04-24 13:04 14.23939 99.24920 34827 ft 474 kts 104°
2026-04-24 13:04 14.23099 99.28232 33901 ft 481 kts 104°
2026-04-24 13:05 14.22250 99.31578 33054 ft 483 kts 104°
2026-04-24 13:05 14.21398 99.34930 32211 ft 484 kts 104°
2026-04-24 13:05 14.20545 99.38283 31383 ft 485 kts 104°
2026-04-24 13:05 14.19688 99.41648 30544 ft 487 kts 104°
2026-04-24 13:06 14.18837 99.44991 29685 ft 489 kts 103°
2026-04-24 13:06 14.17980 99.48357 29104 ft 482 kts 103°
2026-04-24 13:06 14.17141 99.51674 28504 ft 476 kts 103°
2026-04-24 13:06 14.16326 99.54957 27923 ft 470 kts 103°
2026-04-24 13:07 14.15524 99.58192 27349 ft 464 kts 103°
2026-04-24 13:07 14.14728 99.61401 26793 ft 459 kts 103°
2026-04-24 13:07 14.13944 99.64562 26247 ft 453 kts 103°
2026-04-24 13:07 14.13167 99.67692 25710 ft 449 kts 103°
2026-04-24 13:08 14.12397 99.70791 25186 ft 444 kts 103°
2026-04-24 13:08 14.11640 99.73843 24885 ft 434 kts 103°
2026-04-24 13:08 14.10905 99.76812 24693 ft 421 kts 103°
2026-04-24 13:09 14.10084 99.82708 23443 ft 420 kts 84°
2026-04-24 13:09 14.10670 99.85678 22407 ft 427 kts 70°
2026-04-24 13:09 14.11984 99.88383 21926 ft 419 kts 54°
2026-04-24 13:09 14.13876 99.90600 21570 ft 408 kts 40°
2026-04-24 13:10 14.16211 99.92237 20992 ft 405 kts 28°
2026-04-24 13:10 14.18714 99.93550 20426 ft 402 kts 26°
2026-04-24 13:10 14.21211 99.94828 19894 ft 399 kts 27°
2026-04-24 13:10 14.23667 99.96148 19356 ft 397 kts 28°
2026-04-24 13:11 14.26084 99.97508 18818 ft 394 kts 29°
2026-04-24 13:11 14.28468 99.98889 18300 ft 392 kts 30°
2026-04-24 13:11 14.30828 100.00275 17748 ft 389 kts 30°
2026-04-24 13:11 14.33165 100.01655 17229 ft 385 kts 30°
2026-04-24 13:12 14.35462 100.03053 16697 ft 382 kts 35°
2026-04-24 13:12 14.37354 100.04891 16177 ft 378 kts 52°
2026-04-24 13:12 14.38621 100.07238 15654 ft 375 kts 70°
2026-04-24 13:12 14.39135 100.09855 15145 ft 372 kts 88°
2026-04-24 13:13 14.38869 100.12491 14639 ft 370 kts 104°
2026-04-24 13:13 14.38223 100.15051 14147 ft 367 kts 104°
2026-04-24 13:13 14.37579 100.17587 13685 ft 364 kts 104°
2026-04-24 13:13 14.36944 100.20103 13168 ft 361 kts 104°
2026-04-24 13:14 14.36519 100.21794 12831 ft 359 kts 104°
2026-04-24 13:14 14.35899 100.24260 12471 ft 352 kts 104°
2026-04-24 13:14 14.35290 100.26695 12019 ft 349 kts 104°
2026-04-24 13:14 14.34687 100.29105 11562 ft 346 kts 104°
2026-04-24 13:15 14.34087 100.31499 11090 ft 344 kts 104°
2026-04-24 13:15 14.33492 100.33878 10634 ft 341 kts 104°
2026-04-24 13:15 14.32901 100.36237 10196 ft 339 kts 104°
2026-04-24 13:15 14.32314 100.38577 9852 ft 333 kts 104°
2026-04-24 13:16 14.31753 100.40810 9695 ft 316 kts 104°
2026-04-24 13:16 14.31216 100.42947 9433 ft 301 kts 104°
2026-04-24 13:16 14.30696 100.45018 8916 ft 297 kts 103°
2026-04-24 13:16 14.30183 100.47069 8364 ft 294 kts 104°
2026-04-24 13:17 14.29672 100.49101 7828 ft 292 kts 104°
2026-04-24 13:17 14.29165 100.51118 7307 ft 289 kts 104°
2026-04-24 13:17 14.28665 100.53111 6796 ft 286 kts 104°
2026-04-24 13:17 14.28167 100.55089 6309 ft 283 kts 104°
2026-04-24 13:18 14.27675 100.57043 5778 ft 280 kts 104°
2026-04-24 13:18 14.27190 100.58970 5389 ft 272 kts 104°
2026-04-24 13:18 14.26728 100.60802 5267 ft 263 kts 104°
2026-04-24 13:18 14.26031 100.62576 5165 ft 273 kts 125°
2026-04-24 13:19 14.24698 100.63965 5067 ft 272 kts 139°
2026-04-24 13:19 14.23220 100.65188 5031 ft 274 kts 141°
2026-04-24 13:19 14.21717 100.66389 5026 ft 273 kts 141°
2026-04-24 13:19 14.20220 100.67597 5024 ft 274 kts 141°
2026-04-24 13:20 14.18738 100.68812 5021 ft 270 kts 139°
2026-04-24 13:20 14.17574 100.70310 5029 ft 271 kts 114°
2026-04-24 13:20 14.17204 100.72190 5027 ft 270 kts 87°
2026-04-24 13:20 14.17719 100.74035 5029 ft 272 kts 60°
2026-04-24 13:21 14.19015 100.75451 5028 ft 275 kts 33°
2026-04-24 13:21 14.20809 100.76103 5028 ft 277 kts
2026-04-24 13:21 14.22746 100.76095 5027 ft 279 kts 359°
2026-04-24 13:21 14.24687 100.76032 5028 ft 279 kts
2026-04-24 13:22 14.26542 100.76414 5028 ft 276 kts 27°
2026-04-24 13:22 14.28060 100.77628 5026 ft 274 kts 53°
2026-04-24 13:22 14.28853 100.79382 5025 ft 271 kts 81°
2026-04-24 13:22 14.28775 100.81305 5025 ft 271 kts 107°
2026-04-24 13:23 14.27859 100.82984 5033 ft 272 kts 133°
2026-04-24 13:23 14.26317 100.84085 5032 ft 273 kts 159°
2026-04-24 13:23 14.24441 100.84372 5032 ft 277 kts 183°
2026-04-24 13:23 14.22525 100.84173 5030 ft 276 kts 185°
2026-04-24 13:24 14.20642 100.83966 5029 ft 276 kts 185°
2026-04-24 13:24 14.18738 100.83761 4983 ft 275 kts 185°
2026-04-24 13:24 14.16834 100.83561 4657 ft 277 kts 184°
2026-04-24 13:24 14.14916 100.83365 4285 ft 277 kts 184°
2026-04-24 13:25 14.13010 100.83172 3948 ft 274 kts 184°
2026-04-24 13:25 14.11118 100.82981 3639 ft 269 kts 184°
2026-04-24 13:25 14.09281 100.82795 3520 ft 266 kts 184°
2026-04-24 13:25 14.07433 100.82608 3402 ft 267 kts 184°
2026-04-24 13:26 14.05593 100.82422 3188 ft 266 kts 184°
2026-04-24 13:26 14.03758 100.82235 2919 ft 262 kts 184°
2026-04-24 13:26 14.01958 100.82051 2798 ft 261 kts 184°
2026-04-24 13:26 14.00147 100.81868 2676 ft 260 kts 184°
2026-04-24 13:27 13.98347 100.81686 2557 ft 260 kts 184°
2026-04-24 13:27 13.96558 100.81504 2425 ft 257 kts 184°
2026-04-24 13:27 13.94773 100.81323 2319 ft 259 kts 184°
2026-04-24 13:27 13.92983 100.81141 2144 ft 258 kts 184°
2026-04-24 13:28 13.91221 100.80962 2054 ft 249 kts 184°
2026-04-24 13:28 13.89546 100.80792 2022 ft 234 kts 184°
2026-04-24 13:28 13.87973 100.80631 2024 ft 220 kts 184°
2026-04-24 13:28 13.86485 100.80511 2032 ft 215 kts 184°
2026-04-24 13:29 13.85015 100.80274 2023 ft 208 kts 191°
2026-04-24 13:29 13.83658 100.79938 2021 ft 194 kts 193°
2026-04-24 13:29 13.82356 100.79590 2024 ft 194 kts 193°
2026-04-24 13:29 13.81054 100.79246 2029 ft 195 kts 193°
2026-04-24 13:30 13.79742 100.78899 2023 ft 193 kts 193°
2026-04-24 13:30 13.78441 100.78555 1866 ft 191 kts 193°
2026-04-24 13:30 13.77171 100.78219 1611 ft 185 kts 193°
2026-04-24 13:30 13.75988 100.77906 1507 ft 170 kts 193°
2026-04-24 13:31 13.74830 100.77599 1469 ft 172 kts 194°
2026-04-24 13:31 13.73712 100.77289 1225 ft 161 kts 194°
2026-04-24 13:31 13.72633 100.77008 856 ft 159 kts 193°
2026-04-24 13:31 13.71607 100.76763 631 ft 149 kts 193°
2026-04-24 13:32 13.70593 100.76498 382 ft 146 kts 195°
2026-04-24 13:32 13.69635 100.76228 154 ft 142 kts 195°
2026-04-24 13:32 13.68713 100.75984 17 ft 131 kts 194°
2026-04-24 13:32 13.68064 100.75807 12 ft 54 kts 194°
2026-04-24 13:33 13.67828 100.75749 11 ft 32 kts 193°
2026-04-24 13:33 13.67620 100.75683 11 ft 31 kts 206°
2026-04-24 13:33 13.67459 100.75540 13 ft 28 kts 244°
2026-04-24 13:33 13.67569 100.75484 13 ft 23 kts 10°
2026-04-24 13:34 13.67730 100.75516 13 ft 25 kts 349°
2026-04-24 13:34 13.67876 100.75435 13 ft 24 kts 336°
2026-04-24 13:34 13.67998 100.75330 13 ft 23 kts 301°
2026-04-24 13:34 13.68038 100.75191 13 ft 9 kts 282°
2026-04-24 13:35 13.68038 100.75188 13 ft 0 kts 282°